Location: Asheville, NC
(35.6000°N, 82.5500°W)
Time: 03:04:23
(UTC-04:00)

XW-2D - Pass Details

Date: 03 January 2018
Orbit: 511 x 529 km, 97.5° (Epoch: 21 April)

Event Time Altitude Azimuth Distance (km) Brightness Sun altitude
Rises 18:12:05 0° 181° (S) 2,647 ? -8.7°
Reaches altitude 10° 18:14:15 10° 188° (S) 1,764 ? -9.1°
Maximum altitude 18:17:53 43° 261° (W) 746 ? -9.8°
Drops below altitude 10° 18:21:34 10° 334° (NNW) 1,780 ? -10.5°
Sets 18:23:46 0° 341° (NNW) 2,675 ? -10.9°
